TimeEDT,TemperatureF,Dew PointF,Humidity,Sea Level PressureIn,VisibilityMPH,Wind Direction,Wind SpeedMPH,Gust SpeedMPH,PrecipitationIn,Events,Conditions,WindDirDegrees,DateUTC
12:53 AM,43.0,39.0,86,30.46,10.0,Calm,Calm,-,N/A,,Clear,0,2013-05-02 04:53:00
1:53 AM,42.1,39.0,89,30.46,10.0,SW,3.5,-,N/A,,Clear,230,2013-05-02 05:53:00
2:53 AM,41.0,37.9,89,30.45,10.0,Calm,Calm,-,N/A,,Clear,0,2013-05-02 06:53:00
3:53 AM,39.9,37.9,93,30.44,10.0,Calm,Calm,-,N/A,,Clear,0,2013-05-02 07:53:00
4:53 AM,37.9,35.1,89,30.44,10.0,Calm,Calm,-,N/A,,Clear,0,2013-05-02 08:53:00
5:53 AM,37.0,34.0,89,30.43,9.0,Calm,Calm,-,N/A,,Clear,0,2013-05-02 09:53:00
6:53 AM,41.0,37.9,89,30.45,10.0,Calm,Calm,-,N/A,,Clear,0,2013-05-02 10:53:00
7:53 AM,48.9,42.1,77,30.47,10.0,Calm,Calm,-,N/A,,Clear,0,2013-05-02 11:53:00
8:53 AM,55.9,43.0,62,30.46,10.0,Calm,Calm,-,N/A,,Clear,0,2013-05-02 12:53:00
9:53 AM,62.1,39.0,43,30.46,10.0,Calm,Calm,-,N/A,,Clear,0,2013-05-02 13:53:00
10:53 AM,66.0,36.0,33,30.45,10.0,North,4.6,-,N/A,,Clear,360,2013-05-02 14:53:00
11:53 AM,68.0,37.9,33,30.44,10.0,Variable,3.5,-,N/A,,Clear,0,2013-05-02 15:53:00
12:53 PM,71.1,37.9,30,30.41,10.0,Variable,3.5,-,N/A,,Clear,0,2013-05-02 16:53:00
1:53 PM,73.9,39.9,29,30.39,10.0,North,8.1,-,N/A,,Clear,360,2013-05-02 17:53:00
2:53 PM,73.0,39.9,30,30.37,10.0,SSW,10.4,-,N/A,,Clear,210,2013-05-02 18:53:00
3:53 PM,73.9,39.9,29,30.35,10.0,South,9.2,-,N/A,,Clear,170,2013-05-02 19:53:00
4:53 PM,73.0,39.0,29,30.33,10.0,SSE,10.4,16.1,N/A,,Clear,160,2013-05-02 20:53:00
5:53 PM,71.1,36.0,28,30.32,10.0,SSW,8.1,-,N/A,,Clear,200,2013-05-02 21:53:00
6:53 PM,69.1,36.0,30,30.32,10.0,SSW,6.9,-,N/A,,Clear,200,2013-05-02 22:53:00
7:53 PM,66.0,39.0,37,30.32,10.0,SSE,4.6,-,N/A,,Clear,160,2013-05-02 23:53:00
8:53 PM,61.0,42.1,50,30.34,10.0,South,5.8,-,N/A,,Overcast,180,2013-05-03 00:53:00
9:53 PM,59.0,41.0,51,30.38,10.0,East,5.8,-,N/A,,Overcast,80,2013-05-03 01:53:00
10:53 PM,57.0,39.9,53,30.40,10.0,East,4.6,-,N/A,,Overcast,80,2013-05-03 02:53:00
11:53 PM,55.9,39.9,55,30.40,10.0,East,4.6,-,N/A,,Overcast,80,2013-05-03 03:53:00